Sugar Grove, IL

7:53 AM CST on December 09, 2016 (GMT -0600)
Aurora Municipal

Weather History for KARR - January, 2014

Change the Weather History Date:

Monday, January 6, 2014

  Actual Average Record
Temperature  
Mean Temperature -11 °F 21 °F  
Max Temperature -5 °F 29 °F 60 °F (2008)
Min Temperature -17 °F 13 °F -17 °F (2014)
Degree Days  
Heating Degree Days 76 44  
Month to date heating degree days 339 262  
Since 1 July heating degree days 3168 2911  
Cooling Degree Days 0 0  
Month to date cooling degree days 0 0  
Year to date cooling degree days 0 0  
Moisture  
Dew Point -19 °F    
Average Humidity 73    
Maximum Humidity 79    
Minimum Humidity 66    
Precipitation  
Precipitation 0.00 in 0.04 in 0.04 in (2009)
Month to date precipitation 0.00 0.25  
Year to date precipitation 0.00 0.25  
Sea Level Pressure  
Sea Level Pressure 30.22 in    
Wind  
Wind Speed 23 mph (West)    
Max Wind Speed 31 mph    
Max Gust Speed 37 mph    
Visibility 3 miles    
Events Snow    
T = Trace of Precipitation, MM = Missing Value Source: NWS Daily Summary

Daily Weather History Graph

Daily Weather History Graph

Search for Another Location

Airport or City:

Trip Planner

Search our weather history database for the weather conditions in past years. The results will help you decide how hot, cold, wet, or windy it might be!

Date:

Astronomy

Jan. 06, 2014 Rise Set
Actual Time 7:21 AM CST 4:38 PM CST
Civil Twilight 6:50 AM CST 5:09 PM CST
Nautical Twilight 6:15 AM CST 5:44 PM CST
Astronomical Twilight 5:41 AM CST 6:18 PM CST
Moon 10:31 AM CST (1/6) 11:17 PM CST (1/6)
Length of Visible Light 10h 19m
Length of Day
9h 17m
Waxing Crescent, 35% of the Moon is Illuminated
Jan 6
Waxing Crescent
Jan 7
First Quarter
Jan 15
Full
Jan 23
Last Quarter
Jan 30
New

Hourly Weather History & Observations

Time (CST) Temp. Windchill Dew Point Humidity Pressure Visibility Wind Dir Wind Speed Gust Speed Precip Events Conditions
12:01 AM -5.1 °F -30.0 °F -11.9 °F 72% 30.07 in 3.0 mi WNW 23.0 mph - 0.00 in   Clear
12:30 AM -6.0 °F -31.7 °F -13.0 °F 72% 30.09 in 2.5 mi WNW 24.2 mph - 0.00 in   Clear
12:52 AM -7.1 °F -33.7 °F -13.0 °F 75% 30.14 in 2.0 mi WNW 25.3 mph - 0.00 in   Clear
1:16 AM -8.0 °F -33.9 °F -14.1 °F 75% 30.10 in 3.0 mi WNW 23.0 mph - 0.00 in   Haze
1:36 AM -9.0 °F -36.3 °F -14.1 °F 79% 30.11 in 1.8 mi WNW 25.3 mph 34.5 mph 0.00 in   Scattered Clouds
1:43 AM -9.0 °F -35.8 °F -15.0 °F 75% 30.11 in 2.0 mi WNW 24.2 mph - 0.00 in   Mostly Cloudy
1:52 AM -9.0 °F -36.8 °F -15.0 °F 75% 30.17 in 1.2 mi WNW 26.5 mph 35.7 mph 0.00 in   Mostly Cloudy
2:24 AM -11.0 °F -39.9 °F -16.1 °F 78% 30.13 in 1.5 mi WNW 27.6 mph 33.4 mph 0.00 in   Scattered Clouds
2:52 AM -11.0 °F -39.9 °F -17.0 °F 75% 30.19 in 2.0 mi WNW 27.6 mph - 0.00 in   Haze
3:01 AM -11.9 °F -41.6 °F -17.0 °F 78% 30.13 in 1.0 mi WNW 28.8 mph 36.8 mph 0.00 in   Clear
3:39 AM -11.9 °F -40.6 °F -18.0 °F 74% 30.13 in 2.0 mi WNW 26.5 mph - 0.00 in   Haze
3:52 AM -13.0 °F -41.1 °F -18.9 °F 75% 30.20 in 2.5 mi WNW 24.2 mph - 0.00 in   Haze
4:27 AM -13.0 °F -40.0 °F -20.0 °F 71% 30.15 in 3.0 mi West 21.9 mph - N/A   Haze
4:52 AM -14.1 °F -42.0 °F -20.9 °F 71% 30.21 in 3.0 mi West 23.0 mph 29.9 mph N/A   Haze
5:52 AM -15.0 °F -41.4 °F -22.0 °F 71% 30.24 in 3.0 mi West 19.6 mph 29.9 mph N/A   Haze
6:18 AM -16.1 °F -44.6 °F -22.0 °F 74% 30.18 in 2.5 mi West 23.0 mph - N/A   Haze
6:28 AM -16.1 °F -44.0 °F -22.0 °F 74% 30.18 in 3.0 mi West 21.9 mph - N/A   Haze
6:52 AM -16.1 °F -45.2 °F -23.1 °F 71% 30.25 in 3.0 mi West 24.2 mph - N/A   Haze
7:28 AM -17.0 °F -45.2 °F -23.1 °F 74% 30.19 in 1.8 mi West 21.9 mph - N/A   Haze
7:43 AM -17.0 °F -47.4 °F -24.0 °F 70% 30.20 in 2.0 mi West 26.5 mph - N/A   Haze
7:50 AM -16.6 °F -46.4 °F -23.8 °F 70% 30.20 in 1.2 mi West 25.3 mph 32.2 mph N/A   Haze
7:52 AM -17.0 °F -46.9 °F -23.1 °F 74% 30.27 in 1.2 mi West 25.3 mph - N/A   Haze
8:52 AM -17.0 °F -46.4 °F -24.0 °F 70% 30.28 in 1.2 mi West 24.2 mph 29.9 mph N/A   Haze
8:59 AM -17.0 °F -45.8 °F -24.0 °F 70% 30.22 in 2.5 mi West 23.0 mph - N/A   Haze
9:22 AM -17.0 °F -44.0 °F -24.0 °F 70% 30.22 in 5.0 mi West 19.6 mph - N/A   Haze
9:52 AM -16.1 °F -45.7 °F -24.0 °F 67% 30.29 in 5.0 mi West 25.3 mph 31.1 mph N/A   Haze
9:59 AM -16.1 °F -45.2 °F -23.1 °F 71% 30.23 in 5.0 mi West 24.2 mph - 0.00 in   Partly Cloudy
10:52 AM -16.1 °F -46.2 °F -23.1 °F 71% 30.29 in 5.0 mi West 26.5 mph 29.9 mph 0.00 in Snow Blowing Snow
11:52 AM -15.0 °F -44.8 °F -22.0 °F 71% 30.27 in 5.0 mi West 26.5 mph - N/A Snow Blowing Snow
12:52 PM -14.1 °F -44.0 °F -20.9 °F 71% 30.27 in 5.0 mi West 27.6 mph - N/A Snow Blowing Snow
12:59 PM -14.1 °F -43.5 °F -20.9 °F 71% 30.20 in 1.2 mi West 26.5 mph - N/A Snow Blowing Snow
1:09 PM -14.1 °F -44.0 °F -20.9 °F 71% 30.19 in 5.0 mi West 27.6 mph 34.5 mph N/A Snow Blowing Snow
1:52 PM -13.0 °F -41.1 °F -20.0 °F 71% 30.28 in 5.0 mi West 24.2 mph - N/A Snow Blowing Snow
1:59 PM -13.0 °F -42.6 °F -20.0 °F 71% 30.20 in 1.2 mi West 27.6 mph 32.2 mph N/A Snow Blowing Snow
2:52 PM -11.9 °F -40.6 °F -18.9 °F 71% 30.29 in 1.0 mi West 26.5 mph 31.1 mph N/A Snow Blowing Snow
3:52 PM -11.9 °F -39.6 °F -18.9 °F 71% 30.31 in 1.8 mi West 24.2 mph - N/A Snow Blowing Snow
4:09 PM -11.9 °F -40.2 °F -18.9 °F 71% 30.24 in 1.2 mi West 25.3 mph 33.4 mph N/A Snow Blowing Snow
4:20 PM -11.9 °F -38.6 °F -18.0 °F 74% 30.24 in 3.0 mi West 21.9 mph - N/A Snow Blowing Snow
4:52 PM -11.9 °F -37.4 °F -18.9 °F 71% 30.32 in 5.0 mi West 19.6 mph - N/A Snow Blowing Snow
5:52 PM -11.9 °F -38.0 °F -18.9 °F 71% 30.32 in 8.0 mi West 20.7 mph - N/A Snow Blowing Snow
6:52 PM -11.0 °F -37.4 °F -18.0 °F 71% 30.33 in 4.0 mi West 21.9 mph - N/A Snow Blowing Snow
7:52 PM -11.0 °F -37.9 °F -18.0 °F 71% 30.33 in 4.0 mi West 23.0 mph - N/A Snow Blowing Snow
8:52 PM -11.0 °F -35.6 °F -18.0 °F 71% 30.33 in 8.0 mi West 18.4 mph - N/A Snow Blowing Snow
9:52 PM -11.0 °F -34.2 °F -18.0 °F 71% 30.32 in 9.0 mi West 16.1 mph - N/A Snow Blowing Snow
10:52 PM -9.9 °F -34.2 °F -17.0 °F 71% 30.31 in 9.0 mi West 18.4 mph - N/A Snow Blowing Snow
11:52 PM -9.9 °F -33.5 °F -17.0 °F 71% 30.32 in 7.0 mi West 17.3 mph - N/A Snow Blowing Snow